When you browse on this site, cookies collect data to enhance your experience and personalize the content and advertising you see.
Visit our Privacy Policy to learn more. By continuing to use the site, you agree to this use of cookies and data.
  • In Österreich
  • Länderverzeichnis
  • Für 7 Tage
  • Wassertemperatur
  • Wetterkarte
  • News
  • Widgets
  • user-avatar
    Anmelden

    Stündliche Wetter Nariño

    Heute, 17 Januar, Freitag

    Zeit Temperatur Niederschläge Wind Luftdruck Luftfeuchtigkeit
    00:00 +29°C° 0 mm 1 m/S 738 mmHg 56%
    01:00 +27°C° 0 mm 0 m/S 737 mmHg 62%
    02:00 +28°C° 0.4 mm 1 m/S 737 mmHg 65%
    03:00 +28°C° 0.4 mm 1 m/S 736 mmHg 69%
    04:00 +27°C° 0.4 mm 1 m/S 736 mmHg 72%
    05:00 +27°C° 0 mm 1 m/S 737 mmHg 72%
    06:00 +27°C° 0 mm 1 m/S 737 mmHg 71%
    07:00 +28°C° 0 mm 1 m/S 738 mmHg 69%
    08:00 +30°C° 0 mm 1 m/S 738 mmHg 63%
    09:00 +32°C° 0 mm 2 m/S 738 mmHg 58%
    10:00 +34°C° 0 mm 3 m/S 738 mmHg 52%
    11:00 +36°C° 0 mm 3 m/S 737 mmHg 48%
    12:00 +37°C° 0 mm 4 m/S 737 mmHg 45%
    13:00 +39°C° 0 mm 5 m/S 736 mmHg 41%
    14:00 +39°C° 0 mm 5 m/S 735 mmHg 41%
    15:00 +38°C° 0 mm 4 m/S 734 mmHg 41%
    16:00 +38°C° 0 mm 4 m/S 734 mmHg 41%
    17:00 +36°C° 0 mm 3 m/S 734 mmHg 45%
    18:00 +34°C° 0 mm 2 m/S 735 mmHg 50%
    19:00 +32°C° 0 mm 1 m/S 736 mmHg 55%
    20:00 +31°C° 0 mm 1 m/S 737 mmHg 56%
    21:00 +31°C° 0 mm 1 m/S 737 mmHg 56%
    22:00 +30°C° 0 mm 1 m/S 738 mmHg 57%
    23:00 +30°C° 0 mm 1 m/S 738 mmHg 57%

    Morgen, 18 Januar, Samstag

    Zeit Temperatur Niederschläge Wind Luftdruck Luftfeuchtigkeit
    00:00 +30°C° 0 mm 1 m/S 737 mmHg 58%
    01:00 +29°C° 0 mm 1 m/S 737 mmHg 58%
    02:00 +29°C° 0 mm 1 m/S 737 mmHg 59%
    03:00 +29°C° 0 mm 1 m/S 736 mmHg 61%
    04:00 +28°C° 0 mm 1 m/S 736 mmHg 62%
    05:00 +28°C° 0 mm 1 m/S 736 mmHg 63%
    06:00 +28°C° 0 mm 1 m/S 737 mmHg 64%
    07:00 +28°C° 0 mm 1 m/S 737 mmHg 65%
    08:00 +30°C° 0 mm 2 m/S 737 mmHg 60%
    09:00 +32°C° 0 mm 2 m/S 738 mmHg 54%
    10:00 +34°C° 0 mm 3 m/S 738 mmHg 49%
    11:00 +35°C° 0 mm 4 m/S 737 mmHg 46%
    12:00 +37°C° 0 mm 4 m/S 736 mmHg 42%
    13:00 +39°C° 0 mm 5 m/S 735 mmHg 39%
    14:00 +39°C° 0 mm 5 m/S 735 mmHg 39%
    15:00 +38°C° 0 mm 4 m/S 734 mmHg 39%
    16:00 +38°C° 0 mm 4 m/S 733 mmHg 39%
    17:00 +36°C° 0 mm 3 m/S 734 mmHg 44%
    18:00 +34°C° 0 mm 2 m/S 734 mmHg 49%
    19:00 +31°C° 0 mm 1 m/S 735 mmHg 53%
    20:00 +31°C° 0 mm 1 m/S 736 mmHg 54%
    21:00 +31°C° 0 mm 1 m/S 737 mmHg 54%
    22:00 +31°C° 0 mm 1 m/S 737 mmHg 55%
    23:00 +31°C° 0 mm 1 m/S 737 mmHg 55%

    übermorgen, 19 Januar, Sonntag

    Zeit Temperatur Niederschläge Wind Luftdruck Luftfeuchtigkeit
    00:00 +31°C° 0 mm 1 m/S 737 mmHg 55%
    01:00 +30°C° 0 mm 1 m/S 737 mmHg 56%
    02:00 +30°C° 0 mm 1 m/S 736 mmHg 57%
    03:00 +30°C° 0 mm 1 m/S 736 mmHg 58%
    04:00 +27°C° 0 mm 0 m/S 736 mmHg 59%
    05:00 +29°C° 0 mm 1 m/S 736 mmHg 61%
    06:00 +29°C° 0 mm 1 m/S 737 mmHg 63%
    07:00 +29°C° 0 mm 1 m/S 737 mmHg 65%
    08:00 +30°C° 0 mm 1 m/S 737 mmHg 61%
    09:00 +31°C° 0 mm 2 m/S 737 mmHg 57%
    10:00 +32°C° 0 mm 2 m/S 738 mmHg 53%
    11:00 +35°C° 0 mm 2 m/S 737 mmHg 49%
    12:00 +37°C° 0 mm 3 m/S 736 mmHg 45%
    13:00 +38°C° 0 mm 3 m/S 735 mmHg 41%
    14:00 +38°C° 0 mm 3 m/S 734 mmHg 40%
    15:00 +39°C° 0 mm 3 m/S 733 mmHg 39%
    16:00 +39°C° 0 mm 3 m/S 733 mmHg 38%
    17:00 +37°C° 0.1 mm 2 m/S 733 mmHg 44%
    18:00 +35°C° 0.1 mm 2 m/S 734 mmHg 49%
    19:00 +32°C° 0.1 mm 1 m/S 735 mmHg 54%
    20:00 +32°C° 0.3 mm 1 m/S 736 mmHg 57%
    21:00 +31°C° 0.3 mm 1 m/S 736 mmHg 61%
    22:00 +30°C° 0.3 mm 1 m/S 737 mmHg 64%
    23:00 +29°C° 1.4 mm 1 m/S 737 mmHg 69%

    20 Januar, Montag

    Zeit Temperatur Niederschläge Wind Luftdruck Luftfeuchtigkeit
    00:00 +28°C° 1.4 mm 1 m/S 737 mmHg 75%
    01:00 +28°C° 1.4 mm 1 m/S 736 mmHg 80%
    02:00 +27°C° 0.6 mm 1 m/S 736 mmHg 81%
    03:00 +27°C° 0.6 mm 1 m/S 736 mmHg 82%
    04:00 +27°C° 0.6 mm 1 m/S 736 mmHg 83%
    05:00 +27°C° 0.3 mm 1 m/S 736 mmHg 82%
    06:00 +25°C° 0.3 mm 0 m/S 737 mmHg 82%
    07:00 +25°C° 0.3 mm 0 m/S 737 mmHg 81%
    08:00 +27°C° 0.1 mm 0 m/S 737 mmHg 76%
    09:00 +28°C° 0.1 mm 0 m/S 738 mmHg 70%
    10:00 +32°C° 0.1 mm 1 m/S 738 mmHg 64%
    11:00 +33°C° 0.2 mm 1 m/S 737 mmHg 59%
    12:00 +34°C° 0.2 mm 1 m/S 736 mmHg 54%
    13:00 +36°C° 0.2 mm 1 m/S 736 mmHg 49%
    14:00 +35°C° 0.2 mm 1 m/S 735 mmHg 49%
    15:00 +35°C° 0.2 mm 1 m/S 735 mmHg 50%
    16:00 +35°C° 0.2 mm 1 m/S 734 mmHg 51%
    17:00 +33°C° 0.1 mm 1 m/S 735 mmHg 57%
    18:00 +32°C° 0.1 mm 1 m/S 735 mmHg 63%
    19:00 +30°C° 0.1 mm 1 m/S 736 mmHg 69%
    20:00 +30°C° 0.2 mm 1 m/S 736 mmHg 71%
    21:00 +29°C° 0.2 mm 1 m/S 737 mmHg 73%
    22:00 +29°C° 0.2 mm 1 m/S 737 mmHg 76%
    23:00 +28°C° 0.8 mm 1 m/S 737 mmHg 78%

    21 Januar, Dienstag

    Zeit Temperatur Niederschläge Wind Luftdruck Luftfeuchtigkeit
    00:00 +28°C° 0.8 mm 1 m/S 737 mmHg 80%
    01:00 +27°C° 0.8 mm 1 m/S 736 mmHg 83%
    02:00 +27°C° 1.8 mm 1 m/S 736 mmHg 85%
    03:00 +26°C° 1.8 mm 1 m/S 736 mmHg 88%
    04:00 +24°C° 1.8 mm 0 m/S 736 mmHg 91%
    05:00 +26°C° 1.4 mm 1 m/S 736 mmHg 90%
    06:00 +26°C° 1.4 mm 1 m/S 737 mmHg 90%
    07:00 +26°C° 1.4 mm 1 m/S 737 mmHg 90%
    08:00 +27°C° 1.7 mm 1 m/S 737 mmHg 89%
    09:00 +27°C° 1.7 mm 1 m/S 738 mmHg 89%
    10:00 +27°C° 1.7 mm 1 m/S 738 mmHg 89%
    11:00 +27°C° 1.8 mm 1 m/S 737 mmHg 90%
    12:00 +26°C° 1.8 mm 1 m/S 737 mmHg 92%
    13:00 +26°C° 1.8 mm 2 m/S 737 mmHg 93%
    14:00 +26°C° 0.5 mm 1 m/S 736 mmHg 91%
    15:00 +26°C° 0.5 mm 1 m/S 736 mmHg 90%
    16:00 +27°C° 0.5 mm 1 m/S 735 mmHg 88%
    17:00 +26°C° 0.1 mm 1 m/S 736 mmHg 89%
    18:00 +26°C° 0.1 mm 1 m/S 736 mmHg 89%
    19:00 +24°C° 0.1 mm 0 m/S 736 mmHg 90%
    20:00 +24°C° 0 mm 0 m/S 737 mmHg 90%
    21:00 +24°C° 0 mm 0 m/S 738 mmHg 91%
    22:00 +24°C° 0 mm 0 m/S 739 mmHg 91%
    23:00 +23°C° 0.1 mm 0 m/S 738 mmHg 92%

    22 Januar, Mittwoch

    Zeit Temperatur Niederschläge Wind Luftdruck Luftfeuchtigkeit
    00:00 +25°C° 0.1 mm 1 m/S 738 mmHg 93%
    01:00 +25°C° 0.1 mm 1 m/S 738 mmHg 94%
    02:00 +25°C° 0.1 mm 1 m/S 737 mmHg 94%
    03:00 +25°C° 0.1 mm 1 m/S 737 mmHg 95%
    04:00 +25°C° 0.1 mm 1 m/S 737 mmHg 96%
    05:00 +23°C° 0 mm 0 m/S 737 mmHg 95%
    06:00 +23°C° 0 mm 0 m/S 737 mmHg 94%
    07:00 +23°C° 0 mm 0 m/S 738 mmHg 94%
    08:00 +24°C° 0 mm 0 m/S 738 mmHg 88%
    09:00 +27°C° 0 mm 1 m/S 738 mmHg 83%
    10:00 +29°C° 0 mm 1 m/S 738 mmHg 78%
    11:00 +30°C° 0 mm 1 m/S 738 mmHg 72%
    12:00 +31°C° 0 mm 1 m/S 737 mmHg 67%
    13:00 +32°C° 0 mm 1 m/S 736 mmHg 62%
    14:00 +32°C° 0.1 mm 1 m/S 736 mmHg 60%
    15:00 +32°C° 0.1 mm 1 m/S 735 mmHg 58%
    16:00 +33°C° 0.1 mm 1 m/S 734 mmHg 57%
    17:00 +31°C° 0.2 mm 1 m/S 735 mmHg 62%
    18:00 +30°C° 0.2 mm 1 m/S 735 mmHg 67%
    19:00 +29°C° 0.2 mm 1 m/S 736 mmHg 72%
    20:00 +28°C° 0.3 mm 2 m/S 737 mmHg 76%
    21:00 +28°C° 0.3 mm 2 m/S 737 mmHg 79%
    22:00 +27°C° 0.3 mm 2 m/S 738 mmHg 82%
    23:00 +27°C° 0.2 mm 2 m/S 738 mmHg 84%
    Mehr zeigen